Weather History for KCRP - January, 2013

Change the Weather History Date:

Thursday, January 24, 2013

  Actual Average Record
Temperature  
Mean Temperature 71 °F 57 °F  
Max Temperature 85 °F 67 °F 87 °F (1972)
Min Temperature 56 °F 48 °F 18 °F (1963)
Degree Days  
Heating Degree Days 0 8  
Month to date heating degree days 194 215  
Since 1 July heating degree days 369 566  
Cooling Degree Days 6 1  
Month to date cooling degree days 18 24  
Year to date cooling degree days 18 24  
Growing Degree Days 20 (Base 50)    
Moisture  
Dew Point 60 °F    
Average Humidity 70    
Maximum Humidity 100    
Minimum Humidity 40    
Precipitation  
Precipitation 0.00 in 0.05 in 1.36 in (2007)
Month to date precipitation 1.25 1.20  
Year to date precipitation 1.25 1.20  
Snow  
Snow 0.00 in - - ()
Month to date snowfall 0.0  
Since 1 July snowfall 0.0  
Snow Depth 0.00 in    
Sea Level Pressure  
Sea Level Pressure 30.21 in    
Wind  
Wind Speed 12 mph (SSE)    
Max Wind Speed 24 mph    
Max Gust Speed 30 mph    
Visibility 9 miles    
Events Fog    
T = Trace of Precipitation, MM = Missing Value Source: NWS Daily Summary

Daily Weather History Graph

Daily Weather History Graph

Search for Another Location

Airport or City:

Trip Planner

Search our weather history database for the weather conditions in past years. The results will help you decide how hot, cold, wet, or windy it might be!

Date:

Astronomy

Jan. 24, 2013 Rise Set
Actual Time 7:20 AM CST 6:04 PM CST
Civil Twilight 6:55 AM CST 6:29 PM CST
Nautical Twilight 6:26 AM CST 6:57 PM CST
Astronomical Twilight 5:59 AM CST 7:25 PM CST
Moon 4:10 PM CST (1/24) 5:15 AM CST (1/24)
Length of Visible Light 11h 34m
Length of Day
10h 44m
Waxing Gibbous, 94% of the Moon is Illuminated
Jan 24
Waxing Gibbous
Jan 26
Full
Feb 3
Last Quarter
Feb 10
New
Feb 17
First Quarter

Hourly Weather History & Observations

Time (CST) Temp. Heat Index Dew Point Humidity Pressure Visibility Wind Dir Wind Speed Gust Speed Precip Events Conditions
12:51 AM 62.1 °F - 57.9 °F 86% 30.25 in 10.0 mi SSE 8.1 mph - N/A   Partly Cloudy
1:51 AM 61.0 °F - 57.9 °F 90% 30.25 in 10.0 mi South 5.8 mph - N/A   Clear
2:51 AM 57.9 °F - 55.0 °F 90% 30.24 in 10.0 mi South 5.8 mph - N/A   Clear
3:45 AM 57.2 °F - 55.4 °F 94% 30.23 in 7.0 mi SSE 5.8 mph - N/A Fog Patches of Fog
3:51 AM 55.9 °F - 54.0 °F 93% 30.23 in 7.0 mi SSE 5.8 mph - N/A Fog Patches of Fog
4:51 AM 57.0 °F - 55.0 °F 93% 30.23 in 7.0 mi SE 6.9 mph - N/A Fog Patches of Fog
5:51 AM 57.2 °F - 55.4 °F 94% 30.23 in 10.0 mi SSE 6.9 mph - N/A Fog Patches of Fog
6:51 AM 59.0 °F - 57.0 °F 93% 30.25 in 10.0 mi SSE 6.9 mph - N/A   Clear
7:51 AM 57.9 °F - 57.0 °F 97% 30.26 in 6.0 mi SSE 4.6 mph - N/A Fog Clear
8:51 AM 64.9 °F - 62.1 °F 90% 30.27 in 6.0 mi South 8.1 mph - N/A Fog Clear
9:51 AM 70.0 °F - 63.0 °F 78% 30.29 in 10.0 mi South 6.9 mph - N/A   Partly Cloudy
10:51 AM 75.9 °F - 63.0 °F 64% 30.30 in 10.0 mi SSW 12.7 mph - N/A   Partly Cloudy
11:51 AM 79.0 °F - 62.1 °F 56% 30.27 in 10.0 mi SSW 11.5 mph - N/A   Partly Cloudy
12:51 PM 81.0 °F 81.7 °F 61.0 °F 50% 30.22 in 10.0 mi South 5.8 mph 18.4 mph N/A   Partly Cloudy
1:51 PM 84.0 °F 83.5 °F 57.9 °F 41% 30.17 in 10.0 mi SSE 15.0 mph 23.0 mph N/A   Partly Cloudy
2:51 PM 82.0 °F 83.0 °F 62.1 °F 51% 30.14 in 10.0 mi SSE 19.6 mph 27.6 mph N/A   Partly Cloudy
3:51 PM 81.0 °F 81.9 °F 62.1 °F 52% 30.14 in 10.0 mi SSE 16.1 mph - N/A   Clear
4:51 PM 78.1 °F - 62.1 °F 58% 30.14 in 10.0 mi SSE 20.7 mph - N/A   Clear
5:51 PM 73.0 °F - 61.0 °F 66% 30.16 in 10.0 mi SSE 19.6 mph - N/A   Clear
6:51 PM 69.1 °F - 61.0 °F 75% 30.16 in 10.0 mi SSE 18.4 mph - N/A   Clear
7:51 PM 68.0 °F - 61.0 °F 78% 30.17 in 10.0 mi SSE 16.1 mph - N/A   Clear
8:51 PM 66.9 °F - 62.1 °F 84% 30.18 in 10.0 mi SSE 15.0 mph - N/A   Clear
9:51 PM 66.9 °F - 62.1 °F 84% 30.18 in 10.0 mi South 16.1 mph - N/A   Clear
10:51 PM 66.0 °F - 62.1 °F 87% 30.17 in 10.0 mi South 13.8 mph - N/A   Clear
11:22 PM 64.4 °F - 62.6 °F 94% 30.18 in 10.0 mi South 11.5 mph - N/A   Partly Cloudy
11:51 PM 64.0 °F - 61.0 °F 90% 30.17 in 9.0 mi South 10.4 mph - N/A   Partly Cloudy